Waarnemingen

Advertentie
Mijn weer
La Coruna/Alvedro, Spanje (8002): temperatuur & dauwpunt: 17.07.2018 07:00:00 - 23.07.2018 07:00:00 (CEST)La Coruna/Alvedro, Spanje (8002): windsnelheid: 17.07.2018 07:00:00 - 23.07.2018 07:00:00 (CEST)La Coruna/Alvedro, Spanje (8002): windrichting: 17.07.2018 07:00:00 - 23.07.2018 07:00:00 (CEST)La Coruna/Alvedro, Spanje (8002): luchtdruk: 17.07.2018 07:00:00 - 23.07.2018 07:00:00 (CEST)La Coruna/Alvedro, Spanje (8002): zicht: 17.07.2018 07:00:00 - 23.07.2018 07:00:00 (CEST)
Datum & Tijd tt [°C] td [°C] ff [km/u] ff [kn] dd ppp [hPa] vv [km]
23.07.2018 07:00:00 14,8 14,0 9 5 Z 1015,0 10
23.07.2018 06:00:00 15,3 13,8 5 3 Z 1015,0 30
23.07.2018 05:00:00 15,6 14,0 4 2 Z 1015,2 10
23.07.2018 04:00:00 16,4 14,7 2 1 ZZW 1015,4 10
23.07.2018 03:00:00 16,8 14,6 2 1 NW 1015,9 10
23.07.2018 02:00:00 17,6 15,2 2 1 NW 1016,3 10
23.07.2018 01:00:00 18,6 15,5 2 1 NNW 1016,5 20
23.07.2018 00:00:00 20,2 15,8 0 0 N 1016,6 10
22.07.2018 23:00:00 21,1 15,8 8 4 ONO 1016,4 10
22.07.2018 22:00:00 22,2 16,5 5 3 NNO 1015,9 10
22.07.2018 21:00:00 24,1 17,3 8 4 N 1015,5 10
22.07.2018 20:00:00 24,2 17,4 11 6 N 1015,4 10
22.07.2018 19:00:00 24,5 17,3 13 7 N 1015,6 10
22.07.2018 18:00:00 23,4 16,7 16 9 N 1015,6 10
22.07.2018 17:00:00 22,8 16,8 16 9 N 1016,1 10
22.07.2018 16:00:00 22,5 16,9 16 9 N 1016,5 10
22.07.2018 15:00:00 21,6 16,8 22 12 N 1016,9 10
22.07.2018 14:00:00 22,0 16,3 18 10 N 1017,0 10
22.07.2018 13:00:00 22,5 16,3 15 8 N 1017,3 10
22.07.2018 12:00:00 21,6 16,9 9 5 N 1017,4 10
22.07.2018 11:00:00 19,5 16,7 8 4 N 1017,6 10
22.07.2018 10:00:00 18,5 16,5 4 2 - 1017,7 10
22.07.2018 09:00:00 18,2 16,2 5 3 O 1017,8 10
22.07.2018 08:00:00 17,0 16,2 0 0 N 1017,5 10
22.07.2018 07:00:00 17,1 16,5 4 2 - 1017,5 10
22.07.2018 06:00:00 17,2 16,6 4 2 - 1017,2 10
22.07.2018 05:00:00 17,4 16,8 4 2 ZO 1017,5 10
22.07.2018 04:00:00 17,6 17,0 2 1 - 1017,6 10
22.07.2018 03:00:00 17,8 16,8 4 2 NNO 1018,0 16
22.07.2018 02:00:00 18,0 17,0 4 2 - 1018,3 10
22.07.2018 01:00:00 18,0 17,0 2 1 - 1018,4 10
22.07.2018 00:00:00 17,7 16,7 4 2 NNW 1018,5 10
21.07.2018 23:00:00 17,7 16,9 2 1 - 1018,4 10
21.07.2018 22:00:00 18,0 16,2 4 2 - 1018,1 10
21.07.2018 21:00:00 18,8 16,0 5 3 NNW 1017,9 10
21.07.2018 20:00:00 19,0 16,4 13 7 NNW 1017,9 10
21.07.2018 19:00:00 19,6 16,2 18 10 NNW 1018,0 10
21.07.2018 18:00:00 20,4 16,8 13 7 N 1018,1 10
21.07.2018 17:00:00 20,9 16,8 15 8 NW 1018,2 28
21.07.2018 16:00:00 20,3 17,1 13 7 NW 1018,5 10
21.07.2018 15:00:00 20,5 16,5 13 7 NW 1018,6 10
21.07.2018 14:00:00 20,6 16,4 13 7 NNW 1018,8 10
21.07.2018 13:00:00 19,3 16,5 4 2 - 1019,2 10
21.07.2018 12:00:00 18,8 15,4 8 4 ZZO 1019,2 10
21.07.2018 11:00:00 16,6 13,9 5 3 ZZO 1019,4 10
21.07.2018 10:00:00 15,3 13,3 5 3 ZZO 1019,5 10
21.07.2018 09:00:00 14,3 12,5 5 3 ZZO 1019,6 10
21.07.2018 08:00:00 13,4 12,0 8 4 Z 1019,4 10
21.07.2018 07:00:00 12,9 11,8 8 4 ZZO 1019,4 30
21.07.2018 06:00:00 12,8 11,7 9 5 Z 1019,5 10
21.07.2018 05:00:00 13,3 11,9 4 2 ZZW 1019,9 10
21.07.2018 04:00:00 14,4 11,9 0 0 N 1020,3 10
21.07.2018 03:00:00 14,7 12,2 4 2 W 1020,7 30
21.07.2018 02:00:00 15,4 12,9 4 2 - 1021,1 10
21.07.2018 01:00:00 16,3 13,2 5 3 N 1021,4 10
21.07.2018 00:00:00 16,8 13,5 5 3 N 1021,5 10
20.07.2018 23:00:00 17,4 13,2 13 7 N 1021,4 10
20.07.2018 22:00:00 17,6 13,7 16 9 N 1021,1 10
20.07.2018 21:00:00 18,6 14,9 18 10 N 1021,0 10
20.07.2018 20:00:00 19,9 14,7 21 11 N 1020,4 10
20.07.2018 19:00:00 20,2 15,6 18 10 N 1020,4 10
20.07.2018 18:00:00 21,0 14,4 18 10 N 1020,3 10
20.07.2018 17:00:00 21,3 14,1 18 10 N 1020,5 10
20.07.2018 16:00:00 21,7 13,6 16 9 N 1020,7 10
20.07.2018 15:00:00 21,7 14,7 15 8 N 1020,8 10
20.07.2018 14:00:00 21,3 15,2 15 8 N 1021,1 10
20.07.2018 13:00:00 20,4 14,1 16 9 N 1021,1 10
20.07.2018 12:00:00 20,1 15,1 15 8 N 1021,1 10
20.07.2018 11:00:00 19,6 15,5 11 6 N 1020,8 10
20.07.2018 10:00:00 18,5 15,3 8 4 N 1020,9 10
20.07.2018 09:00:00 17,7 15,0 9 5 N 1020,7 10
20.07.2018 08:00:00 17,7 15,0 11 6 N 1020,5 10
20.07.2018 07:00:00 17,1 14,7 8 4 NNW 1020,3 16
20.07.2018 06:00:00 17,3 14,6 8 4 NNW 1020,1 10
20.07.2018 05:00:00 17,6 14,5 5 3 NNW 1020,0 10
20.07.2018 04:00:00 17,7 14,4 8 4 N 1020,2 10
20.07.2018 03:00:00 18,0 14,5 11 6 N 1020,5 23
20.07.2018 02:00:00 18,0 14,5 8 4 N 1020,9 10
20.07.2018 01:00:00 17,9 14,9 8 4 N 1021,2 10
20.07.2018 00:00:00 17,8 15,6 9 5 N 1021,2 10
19.07.2018 23:00:00 18,3 15,9 9 5 N 1020,9 10
19.07.2018 22:00:00 18,4 16,2 13 7 N 1020,5 10
19.07.2018 21:00:00 18,8 15,7 15 8 N 1020,2 10
19.07.2018 20:00:00 18,9 15,6 15 8 N 1020,0 10
19.07.2018 19:00:00 20,3 15,6 15 8 N 1019,6 10
19.07.2018 18:00:00 20,1 15,5 15 8 N 1019,4 22
19.07.2018 17:00:00 21,1 15,6 13 7 N 1019,3 10
19.07.2018 16:00:00 21,0 15,6 13 7 N 1019,2 26
19.07.2018 15:00:00 20,7 15,4 15 8 N 1019,3 10
19.07.2018 14:00:00 20,9 14,7 11 6 NNO 1019,3 30
19.07.2018 13:00:00 20,4 13,9 13 7 NNO 1019,0 30
19.07.2018 12:00:00 19,7 14,4 9 5 NO 1018,7 10
19.07.2018 11:00:00 19,4 15,6 9 5 NNO 1018,3 10
19.07.2018 10:00:00 19,6 16,2 11 6 NNO 1017,8 10
19.07.2018 09:00:00 19,5 16,3 11 6 NNO 1017,4 10
19.07.2018 08:00:00 19,5 16,2 11 6 N 1017,0 10
19.07.2018 07:00:00 19,2 16,3 9 5 NNW 1016,5 17
19.07.2018 06:00:00 19,4 16,6 5 3 N 1016,5 10
19.07.2018 05:00:00 19,5 17,1 8 4 NNW 1016,4 10
19.07.2018 04:00:00 19,6 17,2 5 3 N 1016,4 10
19.07.2018 03:00:00 19,5 17,5 4 2 - 1016,6 10
19.07.2018 02:00:00 19,5 17,6 4 2 - 1016,7 10
19.07.2018 01:00:00 19,6 17,7 8 4 NNW 1016,7 10
19.07.2018 00:00:00 20,3 17,9 8 4 NNW 1016,7 10
18.07.2018 23:00:00 20,6 18,0 8 4 NNW 1016,4 10
18.07.2018 22:00:00 21,0 18,0 5 3 NNW 1016,1 10
18.07.2018 21:00:00 21,1 18,1 11 6 NNW 1015,7 10
18.07.2018 20:00:00 23,5 18,8 8 4 N 1015,2 10
18.07.2018 19:00:00 23,5 19,0 11 6 N 1015,1 19
18.07.2018 18:00:00 23,8 18,8 13 7 NNW 1015,2 10
18.07.2018 17:00:00 24,4 18,6 15 8 NNW 1015,1 10
18.07.2018 16:00:00 24,3 19,3 15 8 NNO 1014,9 10
18.07.2018 15:00:00 24,2 18,9 11 6 N 1014,7 10
18.07.2018 14:00:00 24,1 18,0 9 5 NNO 1014,7 10
18.07.2018 13:00:00 23,3 18,7 8 4 N 1014,9 10
18.07.2018 12:00:00 21,6 17,9 9 5 N 1015,0 10
18.07.2018 11:00:00 21,3 17,5 8 4 N 1014,9 10
18.07.2018 10:00:00 19,8 17,2 2 1 - 1014,7 10
18.07.2018 09:00:00 18,1 16,3 2 1 - 1014,7 10
18.07.2018 08:00:00 17,4 15,9 4 2 - 1014,8 10
18.07.2018 07:00:00 17,0 15,7 0 0 N 1014,9 10
18.07.2018 06:00:00 16,6 15,1 2 1 Z 1014,7 20
18.07.2018 05:00:00 16,4 14,8 2 1 Z 1015,0 10
18.07.2018 04:00:00 16,7 15,4 4 2 ZW 1015,5 10
18.07.2018 03:00:00 16,8 15,3 0 0 N 1016,0 10
18.07.2018 02:00:00 16,8 15,1 2 1 - 1016,3 10
18.07.2018 01:00:00 17,1 14,9 5 3 N 1016,7 10
18.07.2018 00:00:00 17,4 14,7 8 4 N 1017,1 10
17.07.2018 23:00:00 18,1 14,4 9 5 N 1017,2 10
17.07.2018 22:00:00 18,9 14,4 11 6 N 1016,9 28
17.07.2018 21:00:00 19,1 14,4 15 8 N 1017,1 10
17.07.2018 20:00:00 19,2 14,5 18 10 N 1017,3 10
17.07.2018 19:00:00 20,0 14,6 21 11 N 1017,7 10
17.07.2018 18:00:00 20,1 14,4 18 10 N 1018,2 30
17.07.2018 17:00:00 20,3 14,2 18 10 N 1018,7 10
17.07.2018 16:00:00 20,1 14,2 18 10 N 1019,2 10
17.07.2018 15:00:00 20,7 14,1 18 10 N 1019,5 10
17.07.2018 14:00:00 19,9 14,5 13 7 N 1020,0 10
17.07.2018 13:00:00 19,3 14,9 11 6 N 1020,2 10
17.07.2018 12:00:00 19,4 15,7 9 5 NNO 1020,5 10
17.07.2018 11:00:00 19,0 15,5 5 3 N 1020,7 10
17.07.2018 10:00:00 17,4 15,7 4 2 - 1020,9 9
17.07.2018 09:00:00 16,2 15,4 5 3 ZZO 1020,9 8
17.07.2018 08:00:00 15,2 14,7 4 2 - 1021,0 6
17.07.2018 07:00:00 15,0 14,5 0 0 N 1021,1 3,0

tt = temperatuur
td = dauwpunt
ff = windsnelheid
dd = windrichting
ppp = luchtdruk
vv = zicht

Weerstations in de omgeving